{"data":{"norad_id":57389,"intl_designator":"2023-100D","name":"STARLING 3","alt_names":[],"object_type":"PAYLOAD","status":"ACTIVE","operator":null,"country":"US","launch_date":"2023-07-18","launch_site_code":"RLLB","launch_vehicle":null,"mission":null,"orbit_class":"UNKNOWN","rcs_meters":null,"size_class":null,"mass_kg":null,"dimensions":null,"purposes":[],"wikipedia_slug":null,"has_3d_model":false,"image_url":null,"decayed_at":null,"tle_current":{"epoch":"2026-09-21T22:05:05.145216Z","epoch_age_seconds":84992,"freshness":"FRESH","line1":"1 57389U 23100D   26264.92019844  .00003556  00000+0  20494-3 0  9995","line2":"2 57389  99.4999 309.3262 0005810 148.4001 211.7574 15.13325698174697","mean_motion":15.13325698,"eccentricity":0.000581,"inclination_deg":99.4999,"raan_deg":309.3262,"arg_perigee_deg":148.4001,"mean_anomaly_deg":211.7574,"bstar":0.00020494,"rev_number":17469,"period_min":95.154665112943,"perigee_km":522.05494141254,"apogee_km":530.07762562799,"semimajor_km":6904.2032835203,"source":"CELESTRAK","updated_at":"2026-09-22T09:00:26.165171Z"}}}